Location: Cedarville Mobile Home Park
(38.5815°N, 75.0860°W)
Time: 22:53:54
(UTC+00:00)

ISS - Visible Passes

Search period start: 17 January 2026 00:00
Search period end: 27 January 2026 00:00
Orbit: 413 x 424 km, 51.6° (Epoch: 17 January)

Date Brightness Start Highest point End Pass type
(mag) Time Alt. Az. Time Alt. Az. Time Alt. Az.
17 Jan -1.0 23:54:33 10° NNW 23:54:48 10° NNW 23:54:48 10° NNW visible
18 Jan -1.2 23:05:29 10° NW 23:06:53 12° NNW 23:08:16 10° N visible
23 Jan -1.2 23:57:50 10° NNW 23:58:23 12° N 23:58:23 12° N visible
24 Jan -1.5 23:10:16 10° N 23:11:44 12° NNE 23:12:34 11° NNE visible
25 Jan -1.9 23:58:09 10° NNW 23:59:46 21° N 23:59:46 21° N visible
26 Jan -2.2 23:10:24 10° NNW 23:12:59 20° NNE 23:14:07 17° NE visible
